Location: Unspecified
(43.0000°N, 0.0000°E)
Time: 07:53:28
(UTC+00:00)

PicSat - Pass Details

Date: 23 July 2019
Orbit: 486 x 500 km, 97.5° (Epoch: 23 August)

Event Time Altitude Azimuth Distance (km) Brightness Sun altitude
Exits shadow 20:59:46 22° 111° (ESE) 1,120 ? -13.8°
Maximum altitude 21:01:13 30° 71° (ENE) 913 ? -14.0°
Drops below altitude 10° 21:04:26 10° 9° (N) 1,695 ? -14.4°
Sets 21:06:40 0° 358° (N) 2,580 ? -14.7°
